EDT,Max TemperatureF,Mean TemperatureF,Min TemperatureF,Max Dew PointF,MeanDew PointF,Min DewpointF,Max Humidity, Mean Humidity, Min Humidity, Max Sea Level PressureIn, Mean Sea Level PressureIn, Min Sea Level PressureIn, Max VisibilityMiles, Mean VisibilityMiles, Min VisibilityMiles, Max Wind SpeedMPH, Mean Wind SpeedMPH, Max Gust SpeedMPH,PrecipitationIn, CloudCover, Events, WindDirDegrees
2013-3-1,28,26,23,23,19,17,81,79,74,30.11,30.04,29.94,10,10,9,17,11,22,0.00,8,Snow,350
2013-3-2,24,22,21,19,17,13,86,78,65,30.08,30.06,30.01,10,9,6,13,9,,0.00,8,Snow,333
2013-3-3,24,20,16,17,13,10,85,71,57,30.06,30.03,29.98,10,10,5,15,8,16,0.00,6,Snow,304
2013-3-4,33,22,12,14,12,9,88,65,40,30.15,30.11,30.06,10,10,10,7,4,,0.00,2,,315
2013-3-5,34,24,15,22,19,12,88,75,59,30.14,29.98,29.87,10,10,10,18,7,23,0.00,5,,70
2013-3-6,37,30,24,28,25,21,86,76,62,30.21,30.05,29.84,10,10,9,14,9,20,0.00,6,Snow,19
2013-3-7,32,30,26,29,25,18,93,79,59,30.40,30.30,30.20,10,8,2,10,5,,0.00,7,Snow,321
2013-3-8,43,32,21,25,21,16,85,66,45,30.50,30.45,30.40,10,10,10,7,2,,0.00,2,,347
2013-3-9,42,33,24,30,26,21,96,75,55,30.41,30.26,30.06,10,8,4,14,5,,0.00,5,,139
2013-3-10,57,46,35,43,35,30,82,60,47,30.04,29.91,29.80,10,10,10,17,6,24,0.00,6,,171
2013-3-11,54,46,37,47,43,30,100,86,53,29.81,29.61,29.46,10,7,2,17,10,28,0.36,8,Rain,184
2013-3-12,36,32,28,31,27,23,93,78,65,29.91,29.81,29.68,10,9,1,18,12,30,0.01,8,Snow,243
2013-3-13,32,26,21,27,20,11,93,75,47,30.18,29.93,29.82,10,6,1,26,12,36,0.01,7,Snow,274
2013-3-14,37,29,21,20,15,10,75,57,36,30.25,30.18,30.08,10,10,10,14,10,26,0.00,2,,282
2013-3-15,37,34,30,34,28,15,100,81,52,30.06,29.90,29.83,10,5,1,17,8,20,0.03,8,Rain-Snow,268
2013-3-16,30,28,25,30,24,18,100,86,69,30.04,29.84,29.75,10,4,1,14,9,,0.06,8,Snow,54
2013-3-17,28,24,19,21,14,7,78,64,49,30.28,30.17,30.00,10,10,10,15,9,21,0.00,5,,10
2013-3-18,34,26,19,32,26,12,100,87,71,30.18,29.72,29.53,10,6,2,21,12,31,0.03,7,Rain-Snow,121
2013-3-19,33,27,21,30,18,12,89,73,59,29.92,29.75,29.57,10,5,1,23,16,33,0.00,8,Snow,253
2013-3-20,27,22,16,16,12,9,80,66,55,29.94,29.90,29.86,10,9,1,23,13,29,0.00,5,Snow,274
2013-3-21,28,21,14,23,18,9,93,78,66,29.92,29.85,29.80,10,6,1,20,12,24,0.00,7,Snow,281
2013-3-22,36,30,24,22,18,15,72,65,52,30.03,29.97,29.89,10,10,10,16,12,22,0.00,6,,293
2013-3-23,37,30,25,22,21,20,85,69,56,30.10,30.07,30.02,10,10,8,9,5,,0.00,5,,337
2013-3-24,36,28,21,27,22,18,89,74,54,30.03,29.86,29.66,10,10,9,18,7,25,0.00,6,,49
2013-3-25,39,34,30,27,24,22,75,67,57,29.91,29.69,29.56,10,10,10,22,15,30,0.00,7,,21
2013-3-26,42,36,32,30,28,25,87,75,55,30.10,30.02,29.91,10,9,1,15,9,21,0.00,8,Rain-Snow,311
2013-3-27,46,37,28,25,23,22,78,59,40,30.19,30.14,30.11,10,10,10,21,13,26,0.00,5,,297
2013-3-28,50,40,30,26,23,21,73,55,34,30.27,30.23,30.19,10,10,10,14,11,22,0.00,5,,303
2013-3-29,52,40,30,23,20,18,67,47,28,30.28,30.25,30.20,10,10,10,9,6,16,0.00,1,,309
2013-3-30,54,40,27,27,22,15,85,49,22,30.22,30.11,29.93,10,10,10,13,4,18,0.00,4,,209
2013-3-31,55,46,36,40,34,27,82,66,39,29.91,29.70,29.61,10,9,4,17,7,26,0.02,6,Rain,244